Tracking 27112 objects as of 27-Mar-2023
HD Live streaming from Space Station
objects crossing your sky now

SL-12 R/B(2)

Track SL-12 R/B(2) now!


NORAD ID: 23845
Int'l Code: 1996-021D
Perigee: 11,752.9 km
Apogee: 36,170.1 km
Inclination: 7.7 °
Period: 876.2 minutes
Semi major axis: 30332 km
RCS: 34.7717 m2 (large)
Launch date: April 8, 1996
Source: Commonwealth of Independent States (former USSR) (CIS)
Launch site: TYURATAM MISSILE AND SPACE COMPLEX (TTMTR)

Note: This is a ROCKET BODY
Your satellite tracking list
Your tracking list is empty




NASA's NSSDC Master Catalog

Two Line Element Set (TLE):
1 23845U 96021D   23085.88909903 -.00000103  00000-0  00000-0 0  9999
2 23845   7.7250 307.4398 4024935 127.9590 100.8461  1.64339114161830
Source of the keplerian elements: AFSPC